Weather reports worldwide

Advertisment
Kleine Brogel, Belgium (6479): temperature & dewpoint: 09.11.2018 06:00:00 - 15.11.2018 06:00:00 (CET)Kleine Brogel, Belgium (6479): wind speed & gusts: 09.11.2018 06:00:00 - 15.11.2018 06:00:00 (CET)Kleine Brogel, Belgium (6479): wind direction: 09.11.2018 06:00:00 - 15.11.2018 06:00:00 (CET)Kleine Brogel, Belgium (6479): reduced air pressure: 09.11.2018 06:00:00 - 15.11.2018 06:00:00 (CET)Kleine Brogel, Belgium (6479): visibility: 09.11.2018 06:00:00 - 15.11.2018 06:00:00 (CET)
Date & Time tt [°C] td [°C] ff [km/h] ff [kn] fx [km/h] fx [kn] dd ppp [hPa] vv [km]
15.11.2018 06:00:00 - - - - - - - - -
15.11.2018 05:00:00 3,0 2,6 4 2 7 4 - 1025,5 7
15.11.2018 04:00:00 3,2 2,8 4 2 - - - 1025,7 5
15.11.2018 03:00:00 3,4 3,0 4 2 7 4 N 1025,9 10
15.11.2018 02:00:00 3,5 3,2 4 2 7 4 - 1025,9 3,8
15.11.2018 01:00:00 3,7 3,4 4 2 - - - 1026,0 10
15.11.2018 00:00:00 3,4 2,8 2 1 4 2 - 1026,0 1,4
14.11.2018 23:00:00 1,7 1,6 4 2 4 2 N 1026,2 5
14.11.2018 22:00:00 3,5 2,8 4 2 - - N 1026,0 6
14.11.2018 21:00:00 3,8 2,9 4 2 4 2 N 1026,2 1,7
14.11.2018 20:00:00 4,4 3,8 4 2 4 2 N 1026,5 6
14.11.2018 19:00:00 4,9 4,0 4 2 - - N 1026,7 16
14.11.2018 18:00:00 6,5 4,8 4 2 11 6 N 1026,7 20
14.11.2018 17:00:00 9,2 5,6 4 2 7 4 N 1026,9 20
14.11.2018 16:00:00 10,6 6,1 4 2 - - N 1027,2 25
14.11.2018 15:00:00 12,0 6,6 4 2 14 8 N 1027,5 25
14.11.2018 14:00:00 12,6 6,9 7 4 18 10 S 1027,7 25
14.11.2018 13:00:00 12,4 7,1 7 4 - - S 1028,0 25
14.11.2018 12:00:00 12,0 7,8 7 4 14 8 S 1028,4 25
14.11.2018 11:00:00 10,3 7,0 7 4 14 8 S 1029,0 25
14.11.2018 10:00:00 8,9 6,9 4 2 - - N 1029,0 20
14.11.2018 09:00:00 7,2 6,0 7 4 14 8 SSW 1028,9 11
14.11.2018 08:00:00 5,0 4,4 4 2 11 6 N 1028,5 11
14.11.2018 07:00:00 5,3 4,7 7 4 - - S 1028,5 11
14.11.2018 06:00:00 6,2 5,3 7 4 18 10 S 1028,5 11
14.11.2018 05:00:00 5,9 5,2 7 4 11 6 S 1029,0 15
14.11.2018 04:00:00 5,2 4,4 4 2 - - N 1029,5 15
14.11.2018 03:00:00 6,3 5,4 4 2 11 6 N 1029,7 19
14.11.2018 02:00:00 7,1 5,9 7 4 11 6 N 1029,7 19
14.11.2018 01:00:00 7,5 6,2 4 2 - - N 1029,9 14
14.11.2018 00:00:00 8,2 6,6 7 4 14 8 SW 1029,7 18
13.11.2018 23:00:00 8,4 6,8 11 6 18 10 SSW 1029,5 13
13.11.2018 22:00:00 8,3 6,6 11 6 - - SSW 1029,2 19
13.11.2018 21:00:00 8,8 6,9 14 8 22 12 SSW 1028,9 20
13.11.2018 20:00:00 8,8 6,9 7 4 18 10 SSW 1028,5 20
13.11.2018 19:00:00 9,5 7,1 11 6 - - SSW 1028,2 20
13.11.2018 18:00:00 10,6 7,0 11 6 22 12 SW 1027,5 20
13.11.2018 17:00:00 11,5 7,2 11 6 36 19 SW 1027,0 20
13.11.2018 16:00:00 12,6 7,0 22 12 - - SW 1026,0 20
13.11.2018 15:00:00 12,7 7,0 22 12 43 23 SW 1025,2 20
13.11.2018 14:00:00 12,6 7,1 25 14 47 25 WSW 1024,9 20
13.11.2018 13:00:00 12,3 7,6 29 16 - - SW 1024,2 20
13.11.2018 12:00:00 12,1 7,5 32 18 47 25 SW 1023,7 20
13.11.2018 11:00:00 11,6 7,6 29 16 47 25 SW 1023,2 20
13.11.2018 10:00:00 10,8 8,1 22 12 - - SSW 1022,3 15
13.11.2018 09:00:00 9,7 8,0 14 8 25 14 SSW 1022,1 15
13.11.2018 08:00:00 9,3 7,8 14 8 29 16 SSW 1021,5 15
13.11.2018 07:00:00 9,5 8,0 21 11 - - SW 1020,7 10
13.11.2018 06:00:00 9,1 7,7 14 8 22 12 SSW 1020,1 10
13.11.2018 05:00:00 9,1 7,7 11 6 22 12 SSW 1019,6 19
13.11.2018 04:00:00 9,1 7,7 7 4 - - SSW 1019,5 20
13.11.2018 03:00:00 8,9 7,8 7 4 18 10 S 1019,3 20
13.11.2018 02:00:00 8,8 7,8 7 4 18 10 SSW 1019,2 20
13.11.2018 01:00:00 9,0 7,9 7 4 - - S 1019,1 20
13.11.2018 00:00:00 8,6 7,8 7 4 14 8 S 1019,2 18
12.11.2018 23:00:00 8,5 7,9 5 3 11 6 S 1019,0 8
12.11.2018 22:00:00 8,7 8,2 7 4 - - SSW 1018,5 5
12.11.2018 21:00:00 9,0 8,3 4 2 14 8 N 1018,5 10
12.11.2018 20:00:00 9,3 8,7 7 4 11 6 SSW 1018,2 10
12.11.2018 19:00:00 9,6 9,3 7 4 - - SSW 1017,8 8
12.11.2018 18:00:00 9,8 9,3 4 2 11 6 N 1016,3 8
12.11.2018 17:00:00 10,3 9,9 11 6 18 10 W 1015,8 2,5
12.11.2018 16:00:00 11,3 10,7 7 4 - - SW 1015,0 15
12.11.2018 15:00:00 11,5 10,8 4 2 11 6 N 1014,1 15
12.11.2018 14:00:00 11,3 10,6 5 3 14 8 WSW 1013,6 8
12.11.2018 13:00:00 10,6 10,4 7 4 - - W 1013,7 2,5
12.11.2018 12:00:00 10,7 10,4 4 2 7 4 N 1013,2 2,5
12.11.2018 11:00:00 10,6 10,4 4 2 4 2 N 1012,5 2,5
12.11.2018 10:00:00 10,2 10,2 4 2 - - N 1012,2 2,0
12.11.2018 09:00:00 10,1 10,0 2 1 4 2 - 1012,2 2,0
12.11.2018 08:00:00 10,0 9,8 2 1 4 2 - 1012,2 7
12.11.2018 07:00:00 10,0 9,7 4 2 - - N 1012,2 15
12.11.2018 06:00:00 9,8 9,4 4 2 7 4 N 1012,2 20
12.11.2018 05:00:00 10,0 9,3 4 2 4 2 N 1012,2 20
12.11.2018 04:00:00 10,5 9,2 4 2 - - N 1012,7 20
12.11.2018 03:00:00 10,8 9,1 4 2 11 6 N 1012,1 20
12.11.2018 02:00:00 10,8 9,0 4 2 14 8 N 1012,5 20
12.11.2018 01:00:00 10,8 9,0 7 4 - - S 1012,5 20
12.11.2018 00:00:00 10,8 9,1 7 4 14 8 SSW 1012,1 20
11.11.2018 23:00:00 11,1 9,1 7 4 14 8 S 1011,7 20
11.11.2018 22:00:00 11,3 9,4 7 4 - - SSW 1011,1 20
11.11.2018 21:00:00 11,0 10,4 7 4 29 16 SW 1010,3 20
11.11.2018 20:00:00 11,4 10,2 18 10 29 16 SW 1009,6 9
11.11.2018 19:00:00 11,6 9,8 7 4 - - SSW 1008,7 20
11.11.2018 18:00:00 11,8 9,7 11 6 18 10 SSW 1008,1 20
11.11.2018 17:00:00 11,3 9,9 11 6 29 16 SSW 1007,8 20
11.11.2018 16:00:00 12,1 9,1 15 8 - - SSW 1007,2 10
11.11.2018 15:00:00 11,9 10,3 14 8 32 18 S 1007,1 5
11.11.2018 14:00:00 13,1 9,1 18 10 36 19 SSW 1006,7 20
11.11.2018 13:00:00 13,8 8,7 18 10 - - SSW 1006,5 20
11.11.2018 12:00:00 13,6 8,9 18 10 36 19 SSW 1006,2 20
11.11.2018 11:00:00 12,8 8,6 18 10 43 23 SSW 1005,5 20
11.11.2018 10:00:00 12,3 8,5 16 9 - - SSW 1005,2 10
11.11.2018 09:00:00 11,3 8,9 11 6 29 16 S 1004,6 20
11.11.2018 08:00:00 10,9 9,1 14 8 29 16 S 1004,0 20
11.11.2018 07:00:00 10,6 9,3 11 6 - - S 1003,3 20
11.11.2018 06:00:00 11,3 8,8 18 10 32 18 S 1003,2 16
11.11.2018 05:00:00 11,8 8,4 11 6 29 16 S 1003,0 20
11.11.2018 04:00:00 11,6 8,4 14 8 - - S 1003,1 20
11.11.2018 03:00:00 11,6 8,9 11 6 25 14 S 1003,2 20
11.11.2018 02:00:00 11,3 9,2 11 6 22 12 S 1003,2 20
11.11.2018 01:00:00 11,9 9,8 9 5 - - S 1003,1 10
11.11.2018 00:00:00 11,1 9,9 7 4 14 8 S 1003,2 20
10.11.2018 23:00:00 11,6 10,3 9 5 22 12 S 1003,2 10
10.11.2018 22:00:00 11,6 11,0 7 4 - - S 1003,0 20
10.11.2018 21:00:00 11,8 11,2 13 7 22 12 SSW 1002,7 3,9
10.11.2018 20:00:00 12,1 10,6 11 6 22 12 SSW 1002,6 14
10.11.2018 19:00:00 12,3 10,9 7 4 - - S 1002,2 20
10.11.2018 18:00:00 12,2 11,1 7 4 18 10 S 1002,0 20
10.11.2018 17:00:00 12,3 11,1 7 4 22 12 S 1001,7 20
10.11.2018 16:00:00 12,6 11,4 7 4 - - S 1001,5 20
10.11.2018 15:00:00 11,8 11,1 8 4 22 12 S 1001,8 10
10.11.2018 14:00:00 12,3 10,7 11 6 22 12 S 1002,3 8
10.11.2018 13:00:00 12,5 10,7 11 6 - - S 1002,7 20
10.11.2018 12:00:00 12,8 10,0 11 6 25 14 SSW 1003,3 20
10.11.2018 11:00:00 12,8 10,0 14 8 29 16 S 1003,3 20
10.11.2018 10:00:00 12,4 10,0 14 8 - - SSW 1003,3 20
10.11.2018 09:00:00 12,1 10,1 14 8 32 18 SSW 1002,8 20
10.11.2018 08:00:00 12,0 10,4 18 10 40 21 SSW 1002,2 19
10.11.2018 07:00:00 12,0 10,1 14 8 - - SSW 1001,7 5
10.11.2018 06:00:00 13,3 9,0 11 6 25 14 S 1001,2 20
10.11.2018 05:00:00 13,3 8,6 7 4 22 12 SSE 1001,7 20
10.11.2018 04:00:00 12,6 8,4 7 4 - - SSE 1002,7 20
10.11.2018 03:00:00 12,4 8,5 7 4 22 12 SSE 1003,7 20
10.11.2018 02:00:00 11,4 8,6 11 6 22 12 S 1004,6 20
10.11.2018 01:00:00 10,8 8,4 7 4 - - S 1005,6 20
10.11.2018 00:00:00 11,1 8,5 7 4 18 10 S 1006,2 20
09.11.2018 23:00:00 10,3 8,2 7 4 18 10 S 1007,2 20
09.11.2018 22:00:00 9,6 7,6 4 2 - - N 1008,2 20
09.11.2018 21:00:00 10,2 7,8 4 2 11 6 N 1009,0 20
09.11.2018 20:00:00 9,2 6,7 4 2 7 4 N 1009,2 20
09.11.2018 19:00:00 9,1 6,9 4 2 - - N 1009,7 20
09.11.2018 18:00:00 9,5 7,9 4 2 4 2 N 1010,3 20
09.11.2018 17:00:00 10,5 7,9 4 2 7 4 N 1010,8 15
09.11.2018 16:00:00 12,8 7,9 4 2 - - N 1010,8 15
09.11.2018 15:00:00 12,9 7,5 4 2 11 6 N 1011,2 15
09.11.2018 14:00:00 13,6 7,6 4 2 14 8 N 1011,7 15
09.11.2018 13:00:00 12,9 7,7 4 2 - - N 1012,5 15
09.11.2018 12:00:00 12,4 8,2 4 2 11 6 N 1013,3 15
09.11.2018 11:00:00 10,1 7,3 4 2 11 6 N 1013,8 15
09.11.2018 10:00:00 8,3 6,4 4 2 - - N 1013,7 15
09.11.2018 09:00:00 6,0 5,8 4 2 7 4 N 1014,3 15
09.11.2018 08:00:00 3,7 3,5 4 2 4 2 N 1014,6 0,2
09.11.2018 07:00:00 5,0 4,5 4 2 - - N 1014,5 10
09.11.2018 06:00:00 6,4 5,6 4 2 7 4 - 1014,5 10

tt = temperature
td = dewpoint
ff = wind speed
fx = gusts
dd = wind direction
ppp = reduced air pressure
vv = visibility

Next stations